Time,TemperatureF,DewpointF,PressureIn,WindDirection,WindDirectionDegrees,WindSpeedMPH,WindSpeedGustMPH,Humidity,HourlyPrecipIn,Conditions,Clouds,dailyrainin,SoftwareType,DateUTC
2013-04-15 00:00:00,61.2,23.1,29.72,SSW,202,3.8,5.1,23,0.00,,---,0.00,VWS V14.01,2013-04-15 06:00:00,
2013-04-15 00:05:00,61.0,24.0,29.71,WSW,248,4.0,4.0,24,0.00,,---,0.00,VWS V14.01,2013-04-15 06:05:00,
2013-04-15 00:10:00,60.8,23.8,29.71,WSW,248,3.4,3.4,24,0.00,,---,0.00,VWS V14.01,2013-04-15 06:10:00,
2013-04-15 00:15:00,60.5,23.5,29.71,WNW,292,1.6,6.3,24,0.00,,---,0.00,VWS V14.01,2013-04-15 06:15:00,
2013-04-15 00:20:00,60.5,23.5,29.70,WNW,292,6.0,6.7,24,0.00,,---,0.00,VWS V14.01,2013-04-15 06:20:00,
2013-04-15 00:25:00,60.3,23.4,29.70,SSW,202,5.4,5.4,24,0.00,,---,0.00,VWS V14.01,2013-04-15 06:25:00,
2013-04-15 00:30:00,60.1,24.2,29.71,West,270,3.4,5.4,25,0.00,,---,0.00,VWS V14.01,2013-04-15 06:30:00,
2013-04-15 00:35:00,60.1,24.2,29.71,WSW,248,0.7,9.4,25,0.00,,---,0.00,VWS V14.01,2013-04-15 06:35:00,
2013-04-15 00:40:00,60.1,24.2,29.71,SW,225,4.0,4.0,25,0.00,,---,0.00,VWS V14.01,2013-04-15 06:40:00,
2013-04-15 00:45:00,59.8,23.9,29.72,SW,225,1.1,1.8,25,0.00,,---,0.00,VWS V14.01,2013-04-15 06:45:00,
2013-04-15 00:50:00,59.4,23.6,29.72,SW,225,2.0,4.7,25,0.00,,---,0.00,VWS V14.01,2013-04-15 06:50:00,
2013-04-15 00:55:00,59.4,23.6,29.72,SSW,202,3.1,3.4,25,0.00,,---,0.00,VWS V14.01,2013-04-15 06:55:00,
2013-04-15 01:00:00,59.4,23.6,29.73,SW,225,3.1,4.0,25,0.00,,---,0.00,VWS V14.01,2013-04-15 07:00:00,
2013-04-15 01:05:00,59.0,23.2,29.73,SSW,202,1.8,3.4,25,0.00,,---,0.00,VWS V14.01,2013-04-15 07:05:00,
2013-04-15 01:41:00,56.9,23.3,29.72,ESE,112,0.4,0.4,27,0.00,,---,0.00,VWS V14.01,2013-04-15 07:41:00,
2013-04-15 01:42:00,56.9,23.3,29.72,ESE,112,0.9,1.1,27,0.00,,---,0.00,VWS V14.01,2013-04-15 07:42:00,
2013-04-15 01:47:00,56.7,23.1,29.72,SE,135,1.8,3.1,27,0.00,,---,0.00,VWS V14.01,2013-04-15 07:47:00,
2013-04-15 01:48:00,56.7,23.1,29.72,ESE,112,1.8,1.8,27,0.00,,---,0.00,VWS V14.01,2013-04-15 07:48:00,
2013-04-15 01:50:00,56.5,22.9,29.72,South,180,0.4,1.1,27,0.00,,---,0.00,VWS V14.01,2013-04-15 07:50:00,
2013-04-15 01:55:00,56.2,22.7,29.72,SSE,158,0.0,0.2,27,0.00,,---,0.00,VWS V14.01,2013-04-15 07:55:00,
2013-04-15 02:00:00,56.2,22.7,29.72,SSW,202,0.0,0.7,27,0.00,,---,0.00,VWS V14.01,2013-04-15 08:00:00,
2013-04-15 02:05:00,56.2,22.7,29.72,ESE,112,1.1,1.1,27,0.00,,---,0.00,VWS V14.01,2013-04-15 08:05:00,
2013-04-15 02:10:00,56.3,22.8,29.72,South,180,2.2,2.5,27,0.00,,---,0.00,VWS V14.01,2013-04-15 08:10:00,
2013-04-15 02:15:00,56.2,22.7,29.72,SSW,202,0.0,0.0,27,0.00,,---,0.00,VWS V14.01,2013-04-15 08:15:00,
2013-04-15 02:20:00,55.6,22.2,29.72,ENE,68,0.2,0.4,27,0.00,,---,0.00,VWS V14.01,2013-04-15 08:20:00,
2013-04-15 02:25:00,55.3,21.9,29.72,WNW,292,0.9,0.9,27,0.00,,---,0.00,VWS V14.01,2013-04-15 08:25:00,
2013-04-15 02:30:00,55.1,21.7,29.72,WNW,292,0.2,0.2,27,0.00,,---,0.00,VWS V14.01,2013-04-15 08:30:00,
2013-04-15 02:35:00,54.9,22.4,29.72,SE,135,0.4,0.4,28,0.00,,---,0.00,VWS V14.01,2013-04-15 08:35:00,
2013-04-15 02:36:00,54.9,22.4,29.72,SE,135,0.2,0.4,28,0.00,,---,0.00,VWS V14.01,2013-04-15 08:36:00,
2013-04-15 02:40:00,54.9,22.4,29.72,South,180,2.0,2.0,28,0.00,,---,0.00,VWS V14.01,2013-04-15 08:40:00,
2013-04-15 02:45:00,55.6,22.2,29.72,SSE,158,0.4,0.4,27,0.00,,---,0.00,VWS V14.01,2013-04-15 08:45:00,
2013-04-15 02:50:00,55.8,22.3,29.71,SSW,202,0.0,0.0,27,0.00,,---,0.00,VWS V14.01,2013-04-15 08:50:00,
2013-04-15 02:55:00,55.4,22.0,29.72,SE,135,0.0,0.0,27,0.00,,---,0.00,VWS V14.01,2013-04-15 08:55:00,
2013-04-15 03:00:00,54.9,22.4,29.72,ESE,112,0.4,0.4,28,0.00,,---,0.00,VWS V14.01,2013-04-15 09:00:00,
2013-04-15 03:05:00,54.5,22.1,29.72,ESE,112,0.7,0.7,28,0.00,,---,0.00,VWS V14.01,2013-04-15 09:05:00,
2013-04-15 03:10:00,54.2,22.6,29.72,East,90,0.7,0.7,29,0.00,,---,0.00,VWS V14.01,2013-04-15 09:10:00,
2013-04-15 03:15:00,53.6,22.1,29.72,ENE,68,2.5,2.5,29,0.00,,---,0.00,VWS V14.01,2013-04-15 09:15:00,
2013-04-15 03:20:00,53.5,22.9,29.72,East,90,1.3,1.8,30,0.00,,---,0.00,VWS V14.01,2013-04-15 09:20:00,
2013-04-15 03:25:00,53.3,22.7,29.72,East,90,1.1,2.0,30,0.00,,---,0.00,VWS V14.01,2013-04-15 09:25:00,
2013-04-15 03:30:00,53.8,23.1,29.72,East,90,0.0,0.0,30,0.00,,---,0.00,VWS V14.01,2013-04-15 09:30:00,
2013-04-15 03:35:00,53.1,21.7,29.72,SSE,158,0.2,0.2,29,0.00,,---,0.00,VWS V14.01,2013-04-15 09:35:00,
2013-04-15 03:40:00,52.4,21.9,29.72,SE,135,0.0,0.0,30,0.00,,---,0.00,VWS V14.01,2013-04-15 09:40:00,
2013-04-15 03:45:00,52.2,21.7,29.71,NW,315,0.2,0.2,30,0.00,,---,0.00,VWS V14.01,2013-04-15 09:45:00,
2013-04-15 03:50:00,52.0,22.3,29.72,NNE,22,0.2,0.2,31,0.00,,---,0.00,VWS V14.01,2013-04-15 09:50:00,
2013-04-15 03:55:00,52.2,22.5,29.72,ENE,68,0.9,0.9,31,0.00,,---,0.00,VWS V14.01,2013-04-15 09:55:00,
2013-04-15 04:00:00,52.4,21.9,29.72,ENE,68,0.0,0.0,30,0.00,,---,0.00,VWS V14.01,2013-04-15 10:00:00,
2013-04-15 04:05:00,52.0,22.3,29.72,ENE,68,0.4,0.4,31,0.00,,---,0.00,VWS V14.01,2013-04-15 10:05:00,
2013-04-15 04:10:00,51.5,21.9,29.72,North,0,0.0,0.4,31,0.00,,---,0.00,VWS V14.01,2013-04-15 10:10:00,
2013-04-15 04:15:00,50.8,22.0,29.73,WNW,292,0.0,0.0,32,0.00,,---,0.00,VWS V14.01,2013-04-15 10:15:00,
2013-04-15 04:20:00,50.4,21.7,29.72,NNW,338,0.2,0.2,32,0.00,,---,0.00,VWS V14.01,2013-04-15 10:20:00,
2013-04-15 04:25:00,50.4,21.7,29.72,North,0,0.0,0.0,32,0.00,,---,0.00,VWS V14.01,2013-04-15 10:25:00,
2013-04-15 04:30:00,50.2,21.5,29.72,North,0,1.1,1.1,32,0.00,,---,0.00,VWS V14.01,2013-04-15 10:30:00,
2013-04-15 04:35:00,50.4,21.7,29.72,NE,45,0.4,0.4,32,0.00,,---,0.00,VWS V14.01,2013-04-15 10:35:00,
2013-04-15 04:40:00,50.8,22.0,29.72,ENE,68,1.1,1.1,32,0.00,,---,0.00,VWS V14.01,2013-04-15 10:40:00,
2013-04-15 04:45:00,51.1,22.3,29.72,ENE,68,1.6,1.6,32,0.00,,---,0.00,VWS V14.01,2013-04-15 10:45:00,
2013-04-15 04:50:00,50.9,22.1,29.73,East,90,0.2,0.2,32,0.00,,---,0.00,VWS V14.01,2013-04-15 10:50:00,
2013-04-15 04:55:00,50.4,20.9,29.73,East,90,0.0,0.0,31,0.00,,---,0.00,VWS V14.01,2013-04-15 10:55:00,
2013-04-15 05:00:00,49.7,21.8,29.72,ENE,68,0.4,0.4,33,0.00,,---,0.00,VWS V14.01,2013-04-15 11:00:00,
2013-04-15 05:05:00,49.0,21.9,29.72,ENE,68,0.7,0.7,34,0.00,,---,0.00,VWS V14.01,2013-04-15 11:05:00,
2013-04-15 05:10:00,49.0,23.2,29.72,SE,135,0.9,0.9,36,0.00,,---,0.00,VWS V14.01,2013-04-15 11:10:00,
2013-04-15 05:15:00,49.3,22.1,29.73,ESE,112,0.4,0.4,34,0.00,,---,0.00,VWS V14.01,2013-04-15 11:15:00,
2013-04-15 05:20:00,49.7,22.5,29.73,ESE,112,0.4,0.4,34,0.00,,---,0.00,VWS V14.01,2013-04-15 11:20:00,
2013-04-15 05:25:00,50.0,22.0,29.73,ESE,112,0.4,0.4,33,0.00,,---,0.00,VWS V14.01,2013-04-15 11:25:00,
2013-04-15 05:29:00,49.7,21.8,29.72,SE,135,1.1,1.1,33,0.00,,---,0.00,VWS V14.01,2013-04-15 11:29:00,
2013-04-15 05:34:00,50.0,22.0,29.73,ESE,112,0.7,0.9,33,0.00,,---,0.00,VWS V14.01,2013-04-15 11:34:00,
2013-04-15 05:39:00,50.0,22.0,29.73,ENE,68,1.6,1.8,33,0.00,,---,0.00,VWS V14.01,2013-04-15 11:39:00,
2013-04-15 05:44:00,49.7,22.5,29.73,East,90,1.6,2.5,34,0.00,,---,0.00,VWS V14.01,2013-04-15 11:44:00,
2013-04-15 05:49:00,49.1,22.0,29.73,East,90,1.6,2.0,34,0.00,,---,0.00,VWS V14.01,2013-04-15 11:49:00,
2013-04-15 05:54:00,48.6,22.9,29.73,East,90,1.1,1.1,36,0.00,,---,0.00,VWS V14.01,2013-04-15 11:54:00,
2013-04-15 05:59:00,48.2,22.5,29.73,East,90,0.4,0.4,36,0.00,,---,0.00,VWS V14.01,2013-04-15 11:59:00,
2013-04-15 06:04:00,48.6,22.9,29.73,ESE,112,1.1,2.5,36,0.00,,---,0.00,VWS V14.01,2013-04-15 12:04:00,
2013-04-15 06:09:00,49.3,22.1,29.73,ESE,112,0.7,1.6,34,0.00,,---,0.00,VWS V14.01,2013-04-15 12:09:00,
2013-04-15 06:14:00,49.5,21.6,29.73,SE,135,0.9,0.9,33,0.00,,---,0.00,VWS V14.01,2013-04-15 12:14:00,
2013-04-15 06:19:00,49.5,21.6,29.74,SE,135,0.0,0.2,33,0.00,,---,0.00,VWS V14.01,2013-04-15 12:19:00,
2013-04-15 06:24:00,49.0,21.9,29.74,SSE,158,0.4,0.4,34,0.00,,---,0.00,VWS V14.01,2013-04-15 12:24:00,
2013-04-15 06:29:00,49.0,21.9,29.74,ESE,112,0.7,1.3,34,0.00,,---,0.00,VWS V14.01,2013-04-15 12:29:00,
2013-04-15 06:34:00,49.1,22.0,29.74,ESE,112,0.2,0.2,34,0.00,,---,0.00,VWS V14.01,2013-04-15 12:34:00,
2013-04-15 06:40:00,49.3,22.1,29.74,ESE,112,0.4,0.4,34,0.00,,---,0.00,VWS V14.01,2013-04-15 12:40:00,
2013-04-15 06:45:00,49.3,21.4,29.75,ESE,112,0.0,0.0,33,0.00,,---,0.00,VWS V14.01,2013-04-15 12:45:00,
2013-04-15 06:50:00,49.1,21.3,29.75,ESE,112,0.0,0.0,33,0.00,,---,0.00,VWS V14.01,2013-04-15 12:50:00,
2013-04-15 06:55:00,48.8,21.7,29.75,ESE,112,0.0,0.0,34,0.00,,---,0.00,VWS V14.01,2013-04-15 12:55:00,
2013-04-15 07:00:00,48.6,21.5,29.75,ESE,112,0.0,0.0,34,0.00,,---,0.00,VWS V14.01,2013-04-15 13:00:00,
2013-04-15 07:05:00,49.0,21.9,29.75,ESE,112,0.4,0.4,34,0.00,,---,0.00,VWS V14.01,2013-04-15 13:05:00,
2013-04-15 07:10:00,49.1,21.3,29.76,SE,135,0.7,0.7,33,0.00,,---,0.00,VWS V14.01,2013-04-15 13:10:00,
2013-04-15 07:15:00,50.2,22.2,29.76,SE,135,0.4,0.4,33,0.00,,---,0.00,VWS V14.01,2013-04-15 13:15:00,
2013-04-15 07:20:00,51.8,22.1,29.76,SE,135,0.4,0.4,31,0.00,,---,0.00,VWS V14.01,2013-04-15 13:20:00,
2013-04-15 07:25:00,53.1,22.5,29.76,ESE,112,1.3,1.3,30,0.00,,---,0.00,VWS V14.01,2013-04-15 13:25:00,
2013-04-15 07:30:00,54.0,22.5,29.76,ESE,112,1.1,1.1,29,0.00,,---,0.00,VWS V14.01,2013-04-15 13:30:00,
2013-04-15 07:35:00,54.7,23.1,29.76,ESE,112,0.4,0.4,29,0.00,,---,0.00,VWS V14.01,2013-04-15 13:35:00,
2013-04-15 07:40:00,55.8,23.2,29.76,East,90,0.4,0.4,28,0.00,,---,0.00,VWS V14.01,2013-04-15 13:40:00,
2013-04-15 07:45:00,57.1,23.5,29.76,East,90,0.4,0.4,27,0.00,,---,0.00,VWS V14.01,2013-04-15 13:45:00,
2013-04-15 07:50:00,58.0,22.4,29.76,East,90,0.7,1.1,25,0.00,,---,0.00,VWS V14.01,2013-04-15 13:50:00,
2013-04-15 07:55:00,58.7,23.0,29.76,East,90,1.6,1.6,25,0.00,,---,0.00,VWS V14.01,2013-04-15 13:55:00,
2013-04-15 08:00:00,59.0,22.3,29.77,ESE,112,1.3,1.3,24,0.00,,---,0.00,VWS V14.01,2013-04-15 14:00:00,
2013-04-15 08:05:00,58.7,22.0,29.77,SSE,158,1.6,1.6,24,0.00,,---,0.00,VWS V14.01,2013-04-15 14:05:00,
2013-04-15 08:10:00,58.7,22.0,29.77,SSE,158,1.8,1.8,24,0.00,,---,0.00,VWS V14.01,2013-04-15 14:10:00,
2013-04-15 08:15:00,59.0,22.3,29.77,SSE,158,1.3,2.2,24,0.00,,---,0.00,VWS V14.01,2013-04-15 14:15:00,
2013-04-15 08:20:00,59.2,22.5,29.77,South,180,0.7,1.1,24,0.00,,---,0.00,VWS V14.01,2013-04-15 14:20:00,
2013-04-15 08:25:00,59.0,22.3,29.77,SSW,202,3.6,3.6,24,0.00,,---,0.00,VWS V14.01,2013-04-15 14:25:00,
2013-04-15 08:30:00,59.0,23.2,29.77,SSE,158,0.4,1.3,25,0.00,,---,0.00,VWS V14.01,2013-04-15 14:30:00,
2013-04-15 08:35:00,59.4,22.6,29.77,SSE,158,1.1,1.1,24,0.00,,---,0.00,VWS V14.01,2013-04-15 14:35:00,
2013-04-15 08:40:00,60.1,23.2,29.77,SSE,158,1.3,1.6,24,0.00,,---,0.00,VWS V14.01,2013-04-15 14:40:00,
2013-04-15 08:45:00,59.9,23.0,29.77,South,180,0.9,0.9,24,0.00,,---,0.00,VWS V14.01,2013-04-15 14:45:00,
2013-04-15 08:50:00,60.8,23.8,29.77,South,180,1.1,1.3,24,0.00,,---,0.00,VWS V14.01,2013-04-15 14:50:00,
2013-04-15 08:55:00,60.8,23.8,29.76,SSE,158,2.0,2.5,24,0.00,,---,0.00,VWS V14.01,2013-04-15 14:55:00,
2013-04-15 09:00:00,61.6,23.5,29.76,SSW,202,4.9,5.1,23,0.00,,---,0.00,VWS V14.01,2013-04-15 15:00:00,
2013-04-15 09:05:00,61.4,24.3,29.76,SSE,158,0.2,0.4,24,0.00,,---,0.00,VWS V14.01,2013-04-15 15:05:00,
2013-04-15 09:10:00,61.9,23.7,29.76,SW,225,0.9,1.1,23,0.00,,---,0.00,VWS V14.01,2013-04-15 15:10:00,
2013-04-15 09:15:00,62.8,25.5,29.76,SSW,202,0.9,2.0,24,0.00,,---,0.00,VWS V14.01,2013-04-15 15:15:00,
2013-04-15 09:20:00,62.1,24.9,29.76,WSW,248,4.0,5.1,24,0.00,,---,0.00,VWS V14.01,2013-04-15 15:20:00,
2013-04-15 09:25:00,62.6,25.3,29.76,South,180,1.6,1.6,24,0.00,,---,0.00,VWS V14.01,2013-04-15 15:25:00,
2013-04-15 09:30:00,62.1,24.9,29.76,South,180,2.2,5.6,24,0.00,,---,0.00,VWS V14.01,2013-04-15 15:30:00,
2013-04-15 09:35:00,61.7,23.5,29.76,South,180,5.4,5.4,23,0.00,,---,0.00,VWS V14.01,2013-04-15 15:35:00,
2013-04-15 09:40:00,61.6,24.5,29.76,SSW,202,6.3,7.6,24,0.00,,---,0.00,VWS V14.01,2013-04-15 15:40:00,
2013-04-15 09:45:00,61.7,24.6,29.76,SW,225,1.1,1.8,24,0.00,,---,0.00,VWS V14.01,2013-04-15 15:45:00,
2013-04-15 09:50:00,62.1,24.9,29.76,West,270,3.6,5.8,24,0.00,,---,0.00,VWS V14.01,2013-04-15 15:50:00,
2013-04-15 09:55:00,61.7,24.6,29.76,SSW,202,4.3,4.7,24,0.00,,---,0.00,VWS V14.01,2013-04-15 15:55:00,
2013-04-15 10:00:00,62.1,24.9,29.76,SSE,158,3.4,5.4,24,0.00,,---,0.00,VWS V14.01,2013-04-15 16:00:00,
2013-04-15 10:05:00,62.6,25.3,29.76,SW,225,4.7,4.7,24,0.00,,---,0.00,VWS V14.01,2013-04-15 16:05:00,
2013-04-15 10:10:00,62.3,25.1,29.76,SW,225,3.8,3.8,24,0.00,,---,0.00,VWS V14.01,2013-04-15 16:10:00,
2013-04-15 10:15:00,62.5,25.2,29.76,SSW,202,7.4,9.2,24,0.00,,---,0.00,VWS V14.01,2013-04-15 16:15:00,
2013-04-15 10:20:00,63.0,25.7,29.76,SSE,158,1.3,5.1,24,0.00,,---,0.00,VWS V14.01,2013-04-15 16:20:00,
2013-04-15 10:25:00,63.5,25.1,29.76,SW,225,4.7,7.2,23,0.00,,---,0.00,VWS V14.01,2013-04-15 16:25:00,
2013-04-15 10:30:00,63.9,26.4,29.75,South,180,2.0,4.5,24,0.00,,---,0.00,VWS V14.01,2013-04-15 16:30:00,
2013-04-15 10:35:00,64.8,26.2,29.76,SSW,202,5.4,5.4,23,0.00,,---,0.00,VWS V14.01,2013-04-15 16:35:00,
2013-04-15 10:40:00,64.4,25.8,29.75,SSW,202,5.4,5.4,23,0.00,,---,0.00,VWS V14.01,2013-04-15 16:40:00,
2013-04-15 10:45:00,64.1,25.6,29.75,SW,225,6.0,8.5,23,0.00,,---,0.00,VWS V14.01,2013-04-15 16:45:00,
2013-04-15 10:50:00,64.1,25.6,29.75,SSW,202,6.7,6.7,23,0.00,,---,0.00,VWS V14.01,2013-04-15 16:50:00,
2013-04-15 10:55:00,64.8,25.1,29.75,SSW,202,9.6,9.6,22,0.00,,---,0.00,VWS V14.01,2013-04-15 16:55:00,
2013-04-15 11:00:00,65.3,25.5,29.75,South,180,8.5,8.5,22,0.00,,---,0.00,VWS V14.01,2013-04-15 17:00:00,
2013-04-15 11:05:00,65.0,25.3,29.75,South,180,8.1,8.1,22,0.00,,---,0.00,VWS V14.01,2013-04-15 17:05:00,
2013-04-15 11:10:00,64.4,24.8,29.75,SSW,202,7.6,8.5,22,0.00,,---,0.00,VWS V14.01,2013-04-15 17:10:00,
2013-04-15 11:15:00,65.2,24.3,29.75,SSW,202,3.6,3.8,21,0.00,,---,0.00,VWS V14.01,2013-04-15 17:15:00,
2013-04-15 11:21:00,65.5,24.6,29.75,SSW,202,5.8,5.8,21,0.00,,---,0.00,VWS V14.01,2013-04-15 17:21:00,
2013-04-15 11:25:00,65.7,25.8,29.75,South,180,6.9,6.9,22,0.00,,---,0.00,VWS V14.01,2013-04-15 17:25:00,
2013-04-15 11:30:00,65.9,24.9,29.74,SW,225,3.4,3.4,21,0.00,,---,0.00,VWS V14.01,2013-04-15 17:30:00,
2013-04-15 11:35:00,65.9,24.9,29.75,South,180,4.5,5.4,21,0.00,,---,0.00,VWS V14.01,2013-04-15 17:35:00,
2013-04-15 11:40:00,66.1,25.1,29.74,SSW,202,3.1,3.1,21,0.00,,---,0.00,VWS V14.01,2013-04-15 17:40:00,
2013-04-15 11:45:00,66.2,22.8,29.74,South,180,5.4,5.4,19,0.00,,---,0.00,VWS V14.01,2013-04-15 17:45:00,
2013-04-15 11:50:00,67.1,23.5,29.74,SSW,202,4.9,5.6,19,0.00,,---,0.00,VWS V14.01,2013-04-15 17:50:00,
2013-04-15 11:55:00,67.7,24.0,29.74,South,180,9.4,9.4,19,0.00,,---,0.00,VWS V14.01,2013-04-15 17:55:00,
2013-04-15 12:00:00,66.4,24.1,29.74,SW,225,7.2,9.8,20,0.00,,---,0.00,VWS V14.01,2013-04-15 18:00:00,
2013-04-15 12:05:00,66.1,25.1,29.73,SW,225,3.8,3.8,21,0.00,,---,0.00,VWS V14.01,2013-04-15 18:05:00,
2013-04-15 12:10:00,67.0,23.4,29.73,SSW,202,4.7,5.1,19,0.00,,---,0.00,VWS V14.01,2013-04-15 18:10:00,
2013-04-15 12:15:00,66.6,23.1,29.73,South,180,2.7,4.0,19,0.00,,---,0.00,VWS V14.01,2013-04-15 18:15:00,
2013-04-15 12:20:00,66.6,23.1,29.73,SW,225,6.9,10.5,19,0.00,,---,0.00,VWS V14.01,2013-04-15 18:20:00,
2013-04-15 12:25:00,67.3,23.7,29.73,SSE,158,3.4,3.4,19,0.00,,---,0.00,VWS V14.01,2013-04-15 18:25:00,
2013-04-15 12:29:00,68.2,23.1,29.72,South,180,3.4,3.4,18,0.00,,---,0.00,VWS V14.01,2013-04-15 18:29:00,
2013-04-15 12:34:00,68.6,23.4,29.72,South,180,4.5,4.5,18,0.00,,---,0.00,VWS V14.01,2013-04-15 18:34:00,
2013-04-15 12:39:00,68.2,23.1,29.72,South,180,4.5,4.5,18,0.00,,---,0.00,VWS V14.01,2013-04-15 18:39:00,
2013-04-15 12:44:00,68.4,21.9,29.71,SSW,202,11.9,11.9,17,0.00,,---,0.00,VWS V14.01,2013-04-15 18:44:00,
2013-04-15 12:49:00,68.0,21.6,29.71,South,180,6.7,6.7,17,0.00,,---,0.00,VWS V14.01,2013-04-15 18:49:00,
2013-04-15 12:54:00,68.0,23.0,29.71,SW,225,4.7,4.7,18,0.00,,---,0.00,VWS V14.01,2013-04-15 18:54:00,
2013-04-15 12:59:00,67.9,21.5,29.70,SSW,202,11.4,11.4,17,0.00,,---,0.00,VWS V14.01,2013-04-15 18:59:00,
2013-04-15 13:04:00,69.1,22.5,29.70,SSW,202,7.8,7.8,17,0.00,,---,0.00,VWS V14.01,2013-04-15 19:04:00,
2013-04-15 13:09:00,69.3,21.2,29.69,SW,225,3.4,3.4,16,0.00,,---,0.00,VWS V14.01,2013-04-15 19:09:00,
2013-04-15 13:14:00,70.0,21.8,29.69,SSW,202,6.3,6.3,16,0.00,,---,0.00,VWS V14.01,2013-04-15 19:14:00,
2013-04-15 13:19:00,69.8,21.6,29.68,South,180,8.5,8.5,16,0.00,,---,0.00,VWS V14.01,2013-04-15 19:19:00,
2013-04-15 13:24:00,70.0,21.8,29.68,SSW,202,9.6,9.6,16,0.00,,---,0.00,VWS V14.01,2013-04-15 19:24:00,
2013-04-15 13:29:00,70.4,20.6,29.68,WSW,248,6.9,6.9,15,0.00,,---,0.00,VWS V14.01,2013-04-15 19:29:00,
2013-04-15 13:34:00,70.4,20.6,29.67,SE,135,6.3,6.7,15,0.00,,---,0.00,VWS V14.01,2013-04-15 19:34:00,
2013-04-15 13:39:00,70.9,21.0,29.68,SW,225,3.4,4.0,15,0.00,,---,0.00,VWS V14.01,2013-04-15 19:39:00,
2013-04-15 13:44:00,71.6,21.5,29.68,SW,225,4.7,11.2,15,0.00,,---,0.00,VWS V14.01,2013-04-15 19:44:00,
2013-04-15 13:49:00,71.8,21.7,29.67,South,180,4.0,4.0,15,0.00,,---,0.00,VWS V14.01,2013-04-15 19:49:00,
2013-04-15 13:54:00,72.4,22.2,29.67,SSW,202,9.8,9.8,15,0.00,,---,0.00,VWS V14.01,2013-04-15 19:54:00,
2013-04-15 13:57:00,72.4,22.2,29.67,SSW,202,9.2,9.2,15,0.00,,---,0.00,VWS V14.01,2013-04-15 19:57:00,
2013-04-15 14:01:00,72.0,21.9,29.67,NNW,338,2.0,2.0,15,0.00,,---,0.00,VWS V14.01,2013-04-15 20:01:00,
2013-04-15 14:02:00,72.4,22.2,29.67,SW,225,7.6,7.6,15,0.00,,---,0.00,VWS V14.01,2013-04-15 20:02:00,
2013-04-15 14:07:00,72.2,18.7,29.66,South,180,4.5,4.5,13,0.00,,---,0.00,VWS V14.01,2013-04-15 20:07:00,
2013-04-15 14:12:00,72.4,18.8,29.66,SW,225,8.9,8.9,13,0.00,,---,0.00,VWS V14.01,2013-04-15 20:12:00,
2013-04-15 14:17:00,72.7,19.1,29.66,West,270,4.0,4.0,13,0.00,,---,0.00,VWS V14.01,2013-04-15 20:17:00,
2013-04-15 14:22:00,72.9,19.2,29.66,SW,225,2.7,2.7,13,0.00,,---,0.00,VWS V14.01,2013-04-15 20:22:00,
2013-04-15 14:27:00,73.8,18.1,29.65,SSE,158,5.1,5.1,12,0.00,,---,0.00,VWS V14.01,2013-04-15 20:27:00,
2013-04-15 14:32:00,74.3,18.5,29.65,SSW,202,4.5,4.5,12,0.00,,---,0.00,VWS V14.01,2013-04-15 20:32:00,
2013-04-15 14:37:00,74.3,18.5,29.65,SSE,158,4.5,4.5,12,0.00,,---,0.00,VWS V14.01,2013-04-15 20:37:00,
2013-04-15 14:42:00,74.9,16.9,29.64,SSE,158,4.7,4.7,11,0.00,,---,0.00,VWS V14.01,2013-04-15 20:42:00,
2013-04-15 14:47:00,74.9,16.9,29.64,SW,225,2.2,2.2,11,0.00,,---,0.00,VWS V14.01,2013-04-15 20:47:00,
2013-04-15 14:52:00,75.1,17.0,29.64,SSW,202,7.4,7.4,11,0.00,,---,0.00,VWS V14.01,2013-04-15 20:52:00,
2013-04-15 14:57:00,75.8,17.6,29.64,South,180,4.0,4.0,11,0.00,,---,0.00,VWS V14.01,2013-04-15 20:57:00,
2013-04-15 15:02:00,76.5,15.9,29.64,SW,225,9.8,9.8,10,0.00,,---,0.00,VWS V14.01,2013-04-15 21:02:00,
2013-04-15 15:07:00,76.3,15.8,29.64,South,180,8.1,8.1,10,0.00,,---,0.00,VWS V14.01,2013-04-15 21:07:00,
2013-04-15 15:12:00,76.7,16.1,29.63,SSE,158,10.5,10.5,10,0.00,,---,0.00,VWS V14.01,2013-04-15 21:12:00,
2013-04-15 15:17:00,76.7,16.1,29.63,South,180,11.9,11.9,10,0.00,,---,0.00,VWS V14.01,2013-04-15 21:17:00,
2013-04-15 15:22:00,76.9,16.2,29.63,WNW,292,6.5,6.5,10,0.00,,---,0.00,VWS V14.01,2013-04-15 21:22:00,
2013-04-15 15:27:00,77.4,11.5,29.63,WSW,248,7.2,7.2,8,0.00,,---,0.00,VWS V14.01,2013-04-15 21:27:00,
2013-04-15 15:32:00,78.1,12.1,29.62,SSW,202,13.2,13.2,8,0.00,,---,0.00,VWS V14.01,2013-04-15 21:32:00,
2013-04-15 15:37:00,78.3,12.2,29.62,SSW,202,7.6,7.6,8,0.00,,---,0.00,VWS V14.01,2013-04-15 21:37:00,
2013-04-15 15:42:00,78.8,12.6,29.62,SSW,202,7.6,7.6,8,0.00,,---,0.00,VWS V14.01,2013-04-15 21:42:00,
2013-04-15 15:47:00,78.7,12.5,29.61,SSW,202,7.2,12.1,8,0.00,,---,0.00,VWS V14.01,2013-04-15 21:47:00,
2013-04-15 15:52:00,78.8,12.6,29.61,SSE,158,8.9,8.9,8,0.00,,---,0.00,VWS V14.01,2013-04-15 21:52:00,
2013-04-15 15:57:00,78.8,12.6,29.61,SW,225,4.9,4.9,8,0.00,,---,0.00,VWS V14.01,2013-04-15 21:57:00,
2013-04-15 16:02:00,78.3,12.2,29.61,South,180,8.5,8.5,8,0.00,,---,0.00,VWS V14.01,2013-04-15 22:02:00,
2013-04-15 16:07:00,79.6,10.2,29.60,South,180,7.2,7.2,7,0.00,,---,0.00,VWS V14.01,2013-04-15 22:07:00,
2013-04-15 16:12:00,80.3,10.7,29.60,SSW,202,8.5,8.5,7,0.00,,---,0.00,VWS V14.01,2013-04-15 22:12:00,
2013-04-15 16:17:00,79.7,10.2,29.61,SW,225,15.0,15.0,7,0.00,,---,0.00,VWS V14.01,2013-04-15 22:17:00,
2013-04-15 16:22:00,80.1,10.5,29.61,SW,225,4.7,4.7,7,0.00,,---,0.00,VWS V14.01,2013-04-15 22:22:00,
2013-04-15 16:27:00,80.1,10.5,29.60,SW,225,9.8,9.8,7,0.00,,---,0.00,VWS V14.01,2013-04-15 22:27:00,
2013-04-15 16:32:00,79.2,9.9,29.60,SSW,202,8.5,8.5,7,0.00,,---,0.00,VWS V14.01,2013-04-15 22:32:00,
2013-04-15 16:37:00,78.3,12.2,29.60,WSW,248,7.2,7.2,8,0.00,,---,0.00,VWS V14.01,2013-04-15 22:37:00,
2013-04-15 16:42:00,79.6,13.2,29.60,West,270,3.1,3.1,8,0.00,,---,0.00,VWS V14.01,2013-04-15 22:42:00,
2013-04-15 16:47:00,80.5,10.8,29.60,SW,225,7.2,7.2,7,0.00,,---,0.00,VWS V14.01,2013-04-15 22:47:00,
2013-04-15 16:52:00,81.2,11.3,29.60,SW,225,10.5,10.5,7,0.00,,---,0.00,VWS V14.01,2013-04-15 22:52:00,
2013-04-15 16:57:00,80.6,10.9,29.60,WNW,292,8.9,8.9,7,0.00,,---,0.00,VWS V14.01,2013-04-15 22:57:00,
2013-04-15 17:02:00,80.5,10.8,29.60,SW,225,7.4,7.4,7,0.00,,---,0.00,VWS V14.01,2013-04-15 23:02:00,
2013-04-15 17:07:00,80.1,10.5,29.60,WSW,248,7.6,7.6,7,0.00,,---,0.00,VWS V14.01,2013-04-15 23:07:00,
2013-04-15 17:12:00,79.6,10.2,29.61,WSW,248,5.6,5.6,7,0.00,,---,0.00,VWS V14.01,2013-04-15 23:12:00,
2013-04-15 17:17:00,80.5,10.8,29.61,SW,225,14.3,14.3,7,0.00,,---,0.00,VWS V14.01,2013-04-15 23:17:00,
2013-04-15 17:22:00,79.7,10.2,29.61,WSW,248,7.2,7.2,7,0.00,,---,0.00,VWS V14.01,2013-04-15 23:22:00,
2013-04-15 17:27:00,79.6,13.2,29.61,WSW,248,10.7,10.7,8,0.00,,---,0.00,VWS V14.01,2013-04-15 23:27:00,
2013-04-15 17:32:00,78.5,12.4,29.62,WSW,248,10.7,10.7,8,0.00,,---,0.00,VWS V14.01,2013-04-15 23:32:00,
2013-04-15 17:37:00,78.8,12.6,29.62,WSW,248,6.9,6.9,8,0.00,,---,0.00,VWS V14.01,2013-04-15 23:37:00,
2013-04-15 17:42:00,78.5,12.4,29.62,West,270,8.7,8.7,8,0.00,,---,0.00,VWS V14.01,2013-04-15 23:42:00,
2013-04-15 17:47:00,78.3,12.2,29.62,SW,225,9.8,9.8,8,0.00,,---,0.00,VWS V14.01,2013-04-15 23:47:00,
2013-04-15 17:52:00,78.5,12.4,29.62,WNW,292,15.4,15.4,8,0.00,,---,0.00,VWS V14.01,2013-04-15 23:52:00,
2013-04-15 17:57:00,78.7,12.5,29.62,SW,225,6.5,6.5,8,0.00,,---,0.00,VWS V14.01,2013-04-15 23:57:00,
2013-04-15 18:02:00,77.9,11.9,29.63,West,270,6.3,6.3,8,0.00,,---,0.00,VWS V14.01,2013-04-16 00:02:00,
2013-04-15 18:07:00,77.9,11.9,29.63,West,270,7.6,7.6,8,0.00,,---,0.00,VWS V14.01,2013-04-16 00:07:00,
2013-04-15 18:12:00,78.1,12.1,29.63,SSW,202,8.5,8.5,8,0.00,,---,0.00,VWS V14.01,2013-04-16 00:12:00,
2013-04-15 18:17:00,77.9,11.9,29.63,SW,225,5.4,5.4,8,0.00,,---,0.00,VWS V14.01,2013-04-16 00:17:00,
2013-04-15 18:22:00,77.4,14.2,29.63,West,270,6.9,6.9,9,0.00,,---,0.00,VWS V14.01,2013-04-16 00:22:00,
2013-04-15 18:27:00,77.0,11.2,29.64,SW,225,14.5,14.5,8,0.00,,---,0.00,VWS V14.01,2013-04-16 00:27:00,
2013-04-15 18:32:00,76.5,15.9,29.64,WSW,248,9.4,9.4,10,0.00,,---,0.00,VWS V14.01,2013-04-16 00:32:00,
2013-04-15 18:37:00,76.1,15.6,29.64,WNW,292,7.6,7.6,10,0.00,,---,0.00,VWS V14.01,2013-04-16 00:37:00,
2013-04-15 18:42:00,75.8,15.4,29.65,West,270,12.8,12.8,10,0.00,,---,0.00,VWS V14.01,2013-04-16 00:42:00,
2013-04-15 18:47:00,75.4,15.1,29.65,WNW,292,8.9,8.9,10,0.00,,---,0.00,VWS V14.01,2013-04-16 00:47:00,
2013-04-15 18:52:00,75.2,14.9,29.65,West,270,9.8,9.8,10,0.00,,---,0.00,VWS V14.01,2013-04-16 00:52:00,
2013-04-15 18:57:00,74.7,14.6,29.65,WSW,248,9.8,9.8,10,0.00,,---,0.00,VWS V14.01,2013-04-16 00:57:00,
2013-04-15 19:02:00,74.7,14.6,29.66,WSW,248,8.5,8.5,10,0.00,,---,0.00,VWS V14.01,2013-04-16 01:02:00,
2013-04-15 19:07:00,74.2,16.4,29.66,NW,315,5.4,5.4,11,0.00,,---,0.00,VWS V14.01,2013-04-16 01:07:00,
2013-04-15 19:12:00,73.8,16.0,29.66,SW,225,4.5,4.5,11,0.00,,---,0.00,VWS V14.01,2013-04-16 01:12:00,
2013-04-15 19:17:00,73.6,15.9,29.66,West,270,5.4,5.4,11,0.00,,---,0.00,VWS V14.01,2013-04-16 01:17:00,
2013-04-15 19:22:00,73.1,13.3,29.66,WSW,248,8.1,8.1,10,0.00,,---,0.00,VWS V14.01,2013-04-16 01:22:00,
2013-04-15 19:27:00,72.7,15.2,29.67,SW,225,8.3,8.3,11,0.00,,---,0.00,VWS V14.01,2013-04-16 01:27:00,
2013-04-15 19:32:00,72.2,14.8,29.67,WSW,248,12.3,12.3,11,0.00,,---,0.00,VWS V14.01,2013-04-16 01:32:00,
2013-04-15 19:37:00,71.5,14.3,29.67,WSW,248,13.6,13.6,11,0.00,,---,0.00,VWS V14.01,2013-04-16 01:37:00,
2013-04-15 19:42:00,71.1,14.0,29.67,WSW,248,9.8,9.8,11,0.00,,---,0.00,VWS V14.01,2013-04-16 01:42:00,
2013-04-15 19:47:00,70.6,13.6,29.68,WSW,248,7.6,7.6,11,0.00,,---,0.00,VWS V14.01,2013-04-16 01:47:00,
2013-04-15 19:52:00,70.4,13.4,29.68,West,270,10.3,10.3,11,0.00,,---,0.00,VWS V14.01,2013-04-16 01:52:00,
2013-04-15 19:57:00,70.0,15.1,29.68,West,270,8.1,8.1,12,0.00,,---,0.00,VWS V14.01,2013-04-16 01:57:00,
2013-04-15 20:02:00,69.8,14.9,29.68,WNW,292,4.5,4.5,12,0.00,,---,0.00,VWS V14.01,2013-04-16 02:02:00,
2013-04-15 20:07:00,69.5,14.7,29.69,WSW,248,6.5,6.5,12,0.00,,---,0.00,VWS V14.01,2013-04-16 02:07:00,
2013-04-15 20:12:00,69.3,14.6,29.69,West,270,10.1,10.1,12,0.00,,---,0.00,VWS V14.01,2013-04-16 02:12:00,
2013-04-15 20:17:00,69.1,14.4,29.69,WSW,248,5.1,5.1,12,0.00,,---,0.00,VWS V14.01,2013-04-16 02:17:00,
2013-04-15 20:22:00,68.9,14.2,29.69,SW,225,6.3,6.3,12,0.00,,---,0.00,VWS V14.01,2013-04-16 02:22:00,
2013-04-15 20:27:00,68.8,14.1,29.70,WSW,248,4.0,4.0,12,0.00,,---,0.00,VWS V14.01,2013-04-16 02:27:00,
2013-04-15 20:32:00,68.6,14.0,29.70,WSW,248,6.3,6.3,12,0.00,,---,0.00,VWS V14.01,2013-04-16 02:32:00,
2013-04-15 20:37:00,68.4,13.8,29.70,SW,225,3.1,3.1,12,0.00,,---,0.00,VWS V14.01,2013-04-16 02:37:00,
2013-04-15 20:42:00,68.0,15.4,29.71,WSW,248,4.3,4.3,13,0.00,,---,0.00,VWS V14.01,2013-04-16 02:42:00,
2013-04-15 20:47:00,67.9,15.3,29.71,WSW,248,6.5,6.5,13,0.00,,---,0.00,VWS V14.01,2013-04-16 02:47:00,
2013-04-15 20:52:00,67.7,15.1,29.71,WSW,248,1.8,1.8,13,0.00,,---,0.00,VWS V14.01,2013-04-16 02:52:00,
2013-04-15 20:57:00,67.3,14.8,29.71,WSW,248,1.6,1.6,13,0.00,,---,0.00,VWS V14.01,2013-04-16 02:57:00,
2013-04-15 21:02:00,67.1,14.6,29.72,WNW,292,5.4,5.4,13,0.00,,---,0.00,VWS V14.01,2013-04-16 03:02:00,
2013-04-15 21:07:00,67.0,14.6,29.72,WSW,248,3.4,3.4,13,0.00,,---,0.00,VWS V14.01,2013-04-16 03:07:00,
2013-04-15 21:12:00,66.8,17.7,29.72,South,180,2.2,2.2,15,0.00,,---,0.00,VWS V14.01,2013-04-16 03:12:00,
2013-04-15 21:17:00,66.4,17.4,29.73,WSW,248,2.5,2.5,15,0.00,,---,0.00,VWS V14.01,2013-04-16 03:17:00,
2013-04-15 21:22:00,66.1,17.1,29.73,WSW,248,1.8,1.8,15,0.00,,---,0.00,VWS V14.01,2013-04-16 03:22:00,
2013-04-15 21:27:00,66.1,17.1,29.73,WSW,248,6.3,6.3,15,0.00,,---,0.00,VWS V14.01,2013-04-16 03:27:00,
2013-04-15 21:32:00,66.1,17.1,29.73,WNW,292,5.6,5.6,15,0.00,,---,0.00,VWS V14.01,2013-04-16 03:32:00,
2013-04-15 21:37:00,65.9,17.0,29.73,West,270,0.7,0.7,15,0.00,,---,0.00,VWS V14.01,2013-04-16 03:37:00,
2013-04-15 21:42:00,65.5,16.7,29.74,WNW,292,0.4,0.4,15,0.00,,---,0.00,VWS V14.01,2013-04-16 03:42:00,
2013-04-15 21:47:00,64.8,17.6,29.74,WNW,292,3.1,3.1,16,0.00,,---,0.00,VWS V14.01,2013-04-16 03:47:00,
2013-04-15 21:52:00,64.4,17.3,29.74,West,270,0.0,0.0,16,0.00,,---,0.00,VWS V14.01,2013-04-16 03:52:00,
2013-04-15 21:57:00,64.4,17.3,29.74,WNW,292,0.4,0.4,16,0.00,,---,0.00,VWS V14.01,2013-04-16 03:57:00,
2013-04-15 22:00:00,64.1,17.0,29.75,WNW,292,0.4,0.4,16,0.00,,---,0.00,VWS V14.01,2013-04-16 04:00:00,
2013-04-15 22:05:00,63.5,16.5,29.75,WSW,248,0.0,0.0,16,0.00,,---,0.00,VWS V14.01,2013-04-16 04:05:00,
2013-04-15 22:10:00,62.6,17.2,29.75,WSW,248,0.0,0.0,17,0.00,,---,0.00,VWS V14.01,2013-04-16 04:10:00,
2013-04-15 22:15:00,61.9,16.6,29.75,SE,135,0.4,0.4,17,0.00,,---,0.00,VWS V14.01,2013-04-16 04:15:00,
2013-04-15 22:20:00,61.9,18.0,29.75,SE,135,0.0,0.0,18,0.00,,---,0.00,VWS V14.01,2013-04-16 04:20:00,
2013-04-15 22:25:00,61.6,17.7,29.75,SE,135,0.7,0.7,18,0.00,,---,0.00,VWS V14.01,2013-04-16 04:25:00,
2013-04-15 22:30:00,61.6,17.7,29.75,ESE,112,1.8,1.8,18,0.00,,---,0.00,VWS V14.01,2013-04-16 04:30:00,
2013-04-15 22:35:00,61.6,17.7,29.75,ESE,112,1.3,1.3,18,0.00,,---,0.00,VWS V14.01,2013-04-16 04:35:00,
2013-04-15 22:40:00,61.6,17.7,29.76,ESE,112,0.7,0.7,18,0.00,,---,0.00,VWS V14.01,2013-04-16 04:40:00,
2013-04-15 22:45:00,61.4,17.5,29.76,SE,135,0.4,0.4,18,0.00,,---,0.00,VWS V14.01,2013-04-16 04:45:00,
2013-04-15 22:50:00,61.2,17.4,29.75,SE,135,0.0,0.0,18,0.00,,---,0.00,VWS V14.01,2013-04-16 04:50:00,
2013-04-15 22:55:00,60.8,17.0,29.75,SE,135,0.4,0.4,18,0.00,,---,0.00,VWS V14.01,2013-04-16 04:55:00,
2013-04-15 23:00:00,60.5,16.8,29.76,SE,135,0.4,0.4,18,0.00,,---,0.00,VWS V14.01,2013-04-16 05:00:00,
2013-04-15 23:05:00,60.3,16.6,29.76,SE,135,0.9,0.9,18,0.00,,---,0.00,VWS V14.01,2013-04-16 05:05:00,
2013-04-15 23:10:00,60.1,16.5,29.76,SE,135,0.7,0.7,18,0.00,,---,0.00,VWS V14.01,2013-04-16 05:10:00,
2013-04-15 23:15:00,59.8,17.5,29.76,SE,135,0.9,0.9,19,0.00,,---,0.00,VWS V14.01,2013-04-16 05:15:00,
2013-04-15 23:20:00,59.4,15.9,29.76,SSE,158,0.9,0.9,18,0.00,,---,0.00,VWS V14.01,2013-04-16 05:20:00,
2013-04-15 23:25:00,59.4,15.9,29.76,South,180,0.4,0.4,18,0.00,,---,0.00,VWS V14.01,2013-04-16 05:25:00,
2013-04-15 23:30:00,59.4,15.9,29.76,South,180,1.1,1.1,18,0.00,,---,0.00,VWS V14.01,2013-04-16 05:30:00,
2013-04-15 23:35:00,59.4,15.9,29.76,SSE,158,0.4,0.4,18,0.00,,---,0.00,VWS V14.01,2013-04-16 05:35:00,
2013-04-15 23:38:00,59.2,15.7,29.76,SSE,158,0.4,0.4,18,0.00,,---,0.00,VWS V14.01,2013-04-16 05:38:00,
2013-04-15 23:40:00,59.2,15.7,29.76,SSE,158,0.4,0.4,18,0.00,,---,0.00,VWS V14.01,2013-04-16 05:40:00,
2013-04-15 23:45:00,59.2,15.7,29.76,SSE,158,0.4,0.4,18,0.00,,---,0.00,VWS V14.01,2013-04-16 05:45:00,
2013-04-15 23:50:00,59.2,15.7,29.76,SSE,158,0.4,0.4,18,0.00,,---,0.00,VWS V14.01,2013-04-16 05:50:00,
2013-04-15 23:59:00,59.2,15.7,29.76,SSE,158,0.4,0.4,18,0.00,,---,0.00,VWS V14.01,2013-04-16 05:59:00,